This is the latest recevied weather packets stored in our database for station/object JH7UAX-10. If no packets are shown the sender has not sent any weather packets the latest 10 day(s).
| Time | Temp. | Humidity | Pressure | Rain* | Wind** | Luminosity | Snow |
|---|---|---|---|---|---|---|---|
| 1788498855 | 23.89° C | 75% | 1023.9 hPa | 0 mm | - | - | - |
| 1788497054 | 24.44° C | 71% | 1024 hPa | 0 mm | - | - | - |
| 1788496155 | 24.44° C | 71% | 1023.9 hPa | 0 mm | - | - | - |
| 1788494355 | 24.44° C | 73% | 1024 hPa | 0 mm | - | - | - |
| 1788493454 | 24.44° C | 73% | 1023.9 hPa | 0 mm | - | - | - |
| 1788492555 | 24.44° C | 74% | 1024 hPa | 0 mm | - | - | - |
| 1788491654 | 24.44° C | 71% | 1023.7 hPa | 0 mm | - | - | - |
| 1788490755 | 24.44° C | 73% | 1023.9 hPa | 0 mm | - | - | - |
| 1788488954 | 25° C | 71% | 1024.4 hPa | 0 mm | - | - | - |
| 1788487155 | 24.44° C | 69% | 1024.5 hPa | 0 mm | - | - | - |
| 1788486255 | 24.44° C | 71% | 1024.5 hPa | 0 mm | - | - | - |
| 1788485355 | 23.89° C | 75% | 1024.2 hPa | 0 mm | - | - | - |
| 1788484455 | 23.33° C | 76% | 1024.2 hPa | 0 mm | - | - | - |
| 1788482674 | 22.78° C | 79% | 1024.2 hPa | 0 mm | - | - | - |
| 1788479954 | 22.78° C | 81% | 1023.7 hPa | 0 mm | - | - | - |
| 1788476356 | 22.78° C | 87% | 1023.3 hPa | 0 mm | - | - | - |
| 1788475455 | 21.67° C | 88% | 1023.2 hPa | 0 mm | - | - | - |
| 1788472753 | 21.67° C | 88% | 1023.3 hPa | 0 mm | - | - | - |
| 1788470955 | 20.56° C | 90% | 1023.1 hPa | 0 mm | - | - | - |
| 1788470054 | 20.56° C | 89% | 1022.8 hPa | 0 mm | - | - | - |
| 1788469156 | 20.56° C | 90% | 1022.7 hPa | 0 mm | - | - | - |
| 1788468254 | 20° C | 90% | 1022.7 hPa | 0 mm | - | - | - |
| 1788467354 | 20° C | 90% | 1022.5 hPa | 0 mm | - | - | - |
| 1788466455 | 20.56° C | 91% | 1022.3 hPa | 0 mm | - | - | - |
| 1788465555 | 20.56° C | 91% | 1022.3 hPa | 0 mm | - | - | - |
* Rain latest hour (hover to see other rain measurements)
** Current wind speed in m/s (hover to see current wind gust speed)